Location: Moy Burn
(57.3833°N, 4.0667°W)
Time: 09:04:58
(UTC+00:00)

CARTOSAT-1 - Pass Details

Date: 08 August 2020
Orbit: 616 x 619 km, 97.8° (Epoch: 18 September)

Event Time Altitude Azimuth Distance (km) Brightness Sun altitude
Exits shadow 21:57:08 10° 180° (S) 2,019 5.7 -10.9°
Reaches altitude 10° 21:57:13 10° 181° (S) 1,986 5.7 -10.9°
Maximum altitude 22:01:28 55° 259° (W) 755 4.1 -11.2°
Drops below altitude 10° 22:05:45 10° 338° (NNW) 2,002 7.6 -11.6°
Sets 22:08:00 0° 343° (NNW) 2,913 8.7 -11.7°
